STARLINK-3316 (50833 NORAD) Tracking and Keplerian Element Data

This shows tracking and keplerian element data for the satellite.

Feedback or suggestion? Click here.




ElementValue
Catalog50833
NameSTARLINK-3316
Epoch Orbit2205
Epoch Day140.91667824
Epoch Year2022
RAAN283.5479
Inclination53.2159
Eccentricity0.0002328
Argument of Perigee33.3421
Mean Anonmoly206.7246
Mean Motion15.09058277
Decay Rate0.00047193
L11 50833U 22001AG 22140.91667824 .00047193 00000+0 29459-2 0 9990
L22 50833 53.2159 283.5479 0002328 33.3421 206.7246 15.09058277 22055

Live tracking and technical data element details for STARLINK-3316 (NORAD 50833). STARLINK-3316 can be tracked NOW for your location showing map with azimuth and elevation plus other details from your city location.

Track the satellite on the map from your city or location and see movement details for azimuth, elevation, latitude, longitude, range, height, and movement on the map or in text.







IsCatalogInMostPopularTable: catalog: 50833, numindb: 42
Update: records affected: 1



GetName: 50833 STARLINK-3316

Hit Count: updated at: Mon, 23 May 2022 21:13:54 GMT